Location: Albany
(35.0000°S, 118.0000°E)
Time: 06:13:05
(UTC-05:00)

Vanguard 3 - Visible Passes

Search period start: 26 November 2014 00:00
Search period end: 06 December 2014 00:00
Orbit: 508 x 3278 km, 33.3° (Epoch: 25 November)

Date Brightness Start Highest point End Pass type
(mag) Time Alt. Az. Time Alt. Az. Time Alt. Az.
26 Nov 8.0 12:34:16 48° NE 12:34:16 48° NE 12:38:14 10° E visible
26 Nov 6.8 14:38:56 11° W 14:44:56 75° N 14:49:00 10° E visible
27 Nov 9.5 11:25:42 17° E 11:25:42 17° E 11:26:54 10° E visible
27 Nov 7.2 13:30:22 38° WNW 13:33:04 74° N 13:37:50 10° E visible
28 Nov 10.7 07:45:35 10° N 07:48:36 13° NNE 07:48:36 13° NNE visible
28 Nov 7.9 12:21:43 61° NE 12:21:43 61° NE 12:26:40 10° E visible
28 Nov 6.9 14:26:23 10° W 14:33:07 74° N 14:37:22 10° E visible
29 Nov 10.5 08:41:50 10° NNW 08:47:31 20° N 08:47:31 20° N visible
29 Nov 9.3 11:12:57 25° E 11:12:57 25° E 11:15:20 10° E visible
29 Nov 7.4 13:17:36 34° WNW 13:21:09 78° N 13:26:15 10° E visible
30 Nov 10.2 07:29:33 10° N 07:40:40 20° NNE 07:41:58 20° NE visible
30 Nov 10.2 09:41:17 10° NW 09:46:57 23° NNW 09:46:57 23° NNW visible
30 Nov 7.9 12:08:36 72° N 12:08:50 72° N 12:15:03 10° E visible
30 Nov 7.1 14:13:47 10° W 14:21:14 71° N 14:25:44 10° ENE visible
01 Dec 9.6 08:27:17 10° NNW 08:41:52 35° NNE 08:42:05 35° NNE visible
01 Dec 8.8 10:42:21 10° WNW 10:59:14 43° ENE 11:03:42 10° E visible
01 Dec 7.6 13:03:48 26° W 13:09:11 80° N 13:14:38 10° E visible
01 Dec 7.3 15:15:07 10° W 15:20:59 43° NNW 15:24:56 10° NE visible
02 Dec 10.2 07:14:20 10° NNW 07:28:02 26° NNE 07:38:13 10° E visible
02 Dec 9.0 09:27:23 10° NW 09:42:54 53° NNE 09:52:02 10° E visible
02 Dec 8.1 11:44:18 10° WNW 11:56:43 78° N 12:03:24 10° E visible
02 Dec 7.3 14:01:08 10° W 14:09:18 67° NNW 14:14:04 10° ENE visible
03 Dec 9.6 08:12:58 10° NW 08:29:14 42° NNE 08:39:50 10° E visible
03 Dec 8.6 10:28:52 10° WNW 10:43:47 70° NNE 10:52:00 10° E visible
03 Dec 7.8 12:46:27 10° W 12:57:09 80° N 13:02:59 10° E visible
03 Dec 7.6 15:02:42 10° W 15:08:58 38° NNW 15:13:04 10° NE visible
04 Dec 10.1 06:59:35 10° NNW 07:15:14 32° NNE 07:26:48 10° E visible
04 Dec 9.1 09:13:34 10° NW 09:30:22 60° NNE 09:40:16 10° E visible
04 Dec 8.3 11:31:07 10° W 11:44:31 81° N 11:51:43 10° E visible
04 Dec 7.5 13:48:24 10° W 13:57:17 62° NNW 14:02:22 10° ENE visible
05 Dec 9.6 07:58:52 10° NW 08:16:29 49° NNE 08:28:03 10° E visible
05 Dec 8.7 10:15:25 10° WNW 10:31:23 76° N 10:40:14 10° E visible
05 Dec 7.9 12:33:27 10° W 12:45:03 78° N 12:51:19 10° ENE visible
05 Dec 7.9 14:50:13 10° W 14:56:50 33° NNW 15:01:08 10° NNE visible
